Time,TemperatureF,DewpointF,PressureIn,WindDirection,WindDirectionDegrees,WindSpeedMPH,WindSpeedGustMPH,Humidity,HourlyPrecipIn,Conditions,Clouds,dailyrainin,SoftwareType,DateUTC
2013-02-19 00:00:00,22.1,9.6,30.19,SSE,150,1.0,19.0,58,0.00,,,0.00,Wunderground v.1.15,2013-02-19 05:00:00,
2013-02-19 00:01:00,22.2,9.7,30.19,SW,222,1.0,19.0,58,0.00,,,0.00,Wunderground v.1.15,2013-02-19 05:01:00,
2013-02-19 00:03:00,22.4,9.8,30.19,SW,226,1.0,19.0,58,0.00,,,0.00,Wunderground v.1.15,2013-02-19 05:03:00,
2013-02-19 00:05:00,22.7,9.7,30.19,SE,139,1.0,19.0,57,0.00,,,0.00,Wunderground v.1.15,2013-02-19 05:05:00,
2013-02-19 00:10:00,23.1,9.7,30.20,SW,235,1.0,19.0,56,0.00,,,0.00,Wunderground v.1.15,2013-02-19 05:10:00,
2013-02-19 00:16:00,23.5,10.1,30.20,WSW,251,1.0,19.0,56,0.00,,,0.00,Wunderground v.1.15,2013-02-19 05:16:00,
2013-02-19 00:21:00,23.7,10.3,30.20,NE,47,1.0,19.0,56,0.00,,,0.00,Wunderground v.1.15,2013-02-19 05:21:00,
2013-02-19 00:26:00,24.2,10.3,30.20,West,266,1.0,19.0,55,0.00,,,0.00,Wunderground v.1.15,2013-02-19 05:26:00,
2013-02-19 00:32:00,24.6,10.3,30.19,SSE,165,2.0,19.0,54,0.00,,,0.00,Wunderground v.1.15,2013-02-19 05:32:00,
2013-02-19 00:37:00,24.7,10.8,30.19,WNW,291,1.0,19.0,55,0.00,,,0.00,Wunderground v.1.15,2013-02-19 05:37:00,
2013-02-19 00:42:00,24.8,10.9,30.19,ESE,104,1.0,19.0,55,0.00,,,0.00,Wunderground v.1.15,2013-02-19 05:42:00,
2013-02-19 00:47:00,25.0,11.1,30.19,SSW,210,2.0,19.0,55,0.00,,,0.00,Wunderground v.1.15,2013-02-19 05:47:00,
2013-02-19 00:52:00,24.8,11.3,30.19,SSW,197,2.0,19.0,56,0.00,,,0.00,Wunderground v.1.15,2013-02-19 05:52:00,
2013-02-19 00:58:00,24.6,11.1,30.19,WSW,239,1.0,19.0,56,0.00,,,0.00,Wunderground v.1.15,2013-02-19 05:58:00,
2013-02-19 01:03:00,24.7,11.2,30.18,WSW,239,1.0,19.0,56,0.00,,,0.00,Wunderground v.1.15,2013-02-19 06:03:00,
2013-02-19 01:08:00,25.0,11.1,30.18,SW,232,1.0,19.0,55,0.00,,,0.00,Wunderground v.1.15,2013-02-19 06:08:00,
2013-02-19 01:13:00,25.1,11.2,30.18,SW,232,0.0,19.0,55,0.00,,,0.00,Wunderground v.1.15,2013-02-19 06:13:00,
2013-02-19 01:18:00,25.2,11.3,30.18,South,172,0.0,19.0,55,0.00,,,0.00,Wunderground v.1.15,2013-02-19 06:18:00,
2013-02-19 01:24:00,25.4,11.9,30.18,SSW,205,0.0,19.0,56,0.00,,,0.00,Wunderground v.1.15,2013-02-19 06:24:00,
2013-02-19 01:29:00,26.2,12.6,30.18,West,278,1.0,19.0,56,0.00,,,0.00,Wunderground v.1.15,2013-02-19 06:29:00,
2013-02-19 01:34:00,27.5,13.0,30.18,WNW,295,2.0,19.0,54,0.00,,,0.00,Wunderground v.1.15,2013-02-19 06:34:00,
2013-02-19 01:39:00,27.8,12.9,30.18,South,187,2.0,19.0,53,0.00,,,0.00,Wunderground v.1.15,2013-02-19 06:39:00,
2013-02-19 01:44:00,28.1,13.1,30.17,SW,226,2.0,19.0,53,0.00,,,0.00,Wunderground v.1.15,2013-02-19 06:44:00,
2013-02-19 01:50:00,28.7,12.8,30.17,WSW,249,4.0,19.0,51,0.00,,,0.00,Wunderground v.1.15,2013-02-19 06:50:00,
2013-02-19 01:55:00,28.8,12.9,30.17,SW,235,4.0,19.0,51,0.00,,,0.00,Wunderground v.1.15,2013-02-19 06:55:00,
2013-02-19 02:00:00,28.9,12.6,30.17,SSW,208,3.0,19.0,50,0.00,,,0.00,Wunderground v.1.15,2013-02-19 07:00:00,
2013-02-19 02:06:00,28.9,13.0,30.17,SW,214,3.0,19.0,51,0.00,,,0.00,Wunderground v.1.15,2013-02-19 07:06:00,
2013-02-19 02:11:00,29.2,12.8,30.17,West,271,3.0,19.0,50,0.00,,,0.00,Wunderground v.1.15,2013-02-19 07:11:00,
2013-02-19 02:16:00,29.2,13.3,30.17,WSW,240,4.0,19.0,51,0.00,,,0.00,Wunderground v.1.15,2013-02-19 07:16:00,
2013-02-19 02:22:00,29.3,13.4,30.16,West,264,3.0,3.0,51,0.00,,,0.00,Wunderground v.1.15,2013-02-19 07:22:00,
2013-02-19 02:27:00,29.3,13.4,30.16,SW,235,3.0,5.0,51,0.00,,,0.00,Wunderground v.1.15,2013-02-19 07:27:00,
2013-02-19 02:32:00,29.5,13.6,30.16,SW,218,4.0,6.0,51,0.00,,,0.00,Wunderground v.1.15,2013-02-19 07:32:00,
2013-02-19 02:38:00,29.6,14.1,30.16,West,262,3.0,6.0,52,0.00,,,0.00,Wunderground v.1.15,2013-02-19 07:38:00,
2013-02-19 02:43:00,29.6,14.1,30.15,WSW,252,3.0,4.0,52,0.00,,,0.00,Wunderground v.1.15,2013-02-19 07:43:00,
2013-02-19 02:48:00,29.7,14.6,30.15,West,259,3.0,4.0,53,0.00,,,0.00,Wunderground v.1.15,2013-02-19 07:48:00,
2013-02-19 02:53:00,29.7,14.6,30.15,SSW,208,3.0,5.0,53,0.00,,,0.00,Wunderground v.1.15,2013-02-19 07:53:00,
2013-02-19 02:58:00,29.8,15.2,30.14,WNW,297,2.0,5.0,54,0.00,,,0.00,Wunderground v.1.15,2013-02-19 07:58:00,
2013-02-19 03:03:00,30.0,15.3,30.14,SW,228,2.0,12.0,54,0.00,,,0.00,Wunderground v.1.15,2013-02-19 08:03:00,
2013-02-19 03:08:00,30.1,15.9,30.14,ESE,113,2.0,12.0,55,0.00,,,0.00,Wunderground v.1.15,2013-02-19 08:08:00,
2013-02-19 03:13:00,30.0,15.8,30.14,West,274,2.0,12.0,55,0.00,,,0.00,Wunderground v.1.15,2013-02-19 08:13:00,
2013-02-19 03:18:00,30.2,16.0,30.13,WSW,240,2.0,12.0,55,0.00,,,0.00,Wunderground v.1.15,2013-02-19 08:18:00,
2013-02-19 03:23:00,30.5,16.2,30.13,South,187,2.0,12.0,55,0.00,,,0.00,Wunderground v.1.15,2013-02-19 08:23:00,
2013-02-19 03:28:00,30.8,16.5,30.13,SSE,160,2.0,12.0,55,0.00,,,0.00,Wunderground v.1.15,2013-02-19 08:28:00,
2013-02-19 03:34:00,30.9,17.0,30.12,SSW,193,2.0,12.0,56,0.00,,,0.00,Wunderground v.1.15,2013-02-19 08:34:00,
2013-02-19 03:39:00,31.0,17.1,30.12,SE,126,2.0,12.0,56,0.00,,,0.00,Wunderground v.1.15,2013-02-19 08:39:00,
2013-02-19 03:44:00,31.1,17.2,30.12,South,190,1.0,12.0,56,0.00,,,0.00,Wunderground v.1.15,2013-02-19 08:44:00,
2013-02-19 03:49:00,31.2,17.3,30.12,SW,214,2.0,12.0,56,0.00,,,0.00,Wunderground v.1.15,2013-02-19 08:49:00,
2013-02-19 03:54:00,31.4,17.5,30.11,West,269,2.0,12.0,56,0.00,,,0.00,Wunderground v.1.15,2013-02-19 08:54:00,
2013-02-19 03:59:00,31.6,17.7,30.11,SSW,207,1.0,12.0,56,0.00,,,0.00,Wunderground v.1.15,2013-02-19 08:59:00,
2013-02-19 04:05:00,31.5,17.6,30.11,South,179,1.0,12.0,56,0.00,,,0.00,Wunderground v.1.15,2013-02-19 09:05:00,
2013-02-19 04:10:00,31.7,18.2,30.11,West,278,1.0,12.0,57,0.00,,,0.00,Wunderground v.1.15,2013-02-19 09:10:00,
2013-02-19 04:15:00,31.8,18.3,30.10,SSW,205,1.0,12.0,57,0.00,,,0.00,Wunderground v.1.15,2013-02-19 09:15:00,
2013-02-19 04:20:00,32.1,18.6,30.10,WNW,299,1.0,12.0,57,0.00,,,0.00,Wunderground v.1.15,2013-02-19 09:20:00,
2013-02-19 04:25:00,32.1,18.2,30.09,SW,225,1.0,12.0,56,0.00,,,0.00,Wunderground v.1.15,2013-02-19 09:25:00,
2013-02-19 04:31:00,32.1,18.6,30.09,WSW,252,1.0,12.0,57,0.00,,,0.00,Wunderground v.1.15,2013-02-19 09:31:00,
2013-02-19 04:36:00,32.0,18.9,30.09,West,280,1.0,12.0,58,0.00,,,0.00,Wunderground v.1.15,2013-02-19 09:36:00,
2013-02-19 04:41:00,31.9,18.8,30.09,West,260,1.0,12.0,58,0.00,,,0.00,Wunderground v.1.15,2013-02-19 09:41:00,
2013-02-19 04:46:00,31.9,19.2,30.08,SSW,200,1.0,12.0,59,0.00,,,0.00,Wunderground v.1.15,2013-02-19 09:46:00,
2013-02-19 04:51:00,32.1,19.0,30.08,SW,232,1.0,12.0,58,0.00,,,0.00,Wunderground v.1.15,2013-02-19 09:51:00,
2013-02-19 04:57:00,31.9,18.8,30.08,West,266,1.0,12.0,58,0.00,,,0.00,Wunderground v.1.15,2013-02-19 09:57:00,
2013-02-19 05:02:00,31.8,19.1,30.08,WNW,290,1.0,12.0,59,0.00,,,0.00,Wunderground v.1.15,2013-02-19 10:02:00,
2013-02-19 05:07:00,31.9,19.2,30.08,West,262,1.0,12.0,59,0.00,,,0.00,Wunderground v.1.15,2013-02-19 10:07:00,
2013-02-19 05:13:00,31.8,19.1,30.07,WSW,245,1.0,12.0,59,0.00,,,0.00,Wunderground v.1.15,2013-02-19 10:13:00,
2013-02-19 05:18:00,31.6,18.9,30.07,East,91,1.0,12.0,59,0.00,,,0.00,Wunderground v.1.15,2013-02-19 10:18:00,
2013-02-19 05:23:00,31.6,18.9,30.07,North,4,1.0,12.0,59,0.00,,,0.00,Wunderground v.1.15,2013-02-19 10:23:00,
2013-02-19 05:28:00,31.5,19.2,30.06,WSW,252,1.0,12.0,60,0.00,,,0.00,Wunderground v.1.15,2013-02-19 10:28:00,
2013-02-19 05:34:00,31.7,19.4,30.06,North,359,1.0,12.0,60,0.00,,,0.00,Wunderground v.1.15,2013-02-19 10:34:00,
2013-02-19 05:39:00,31.7,19.4,30.06,North,8,1.0,12.0,60,0.00,,,0.00,Wunderground v.1.15,2013-02-19 10:39:00,
2013-02-19 05:45:00,31.8,19.5,30.05,SW,219,1.0,12.0,60,0.00,,,0.00,Wunderground v.1.15,2013-02-19 10:45:00,
2013-02-19 05:50:00,32.2,19.9,30.05,WNW,299,1.0,1.0,60,0.00,,,0.00,Wunderground v.1.15,2013-02-19 10:50:00,
2013-02-19 05:55:00,32.2,19.9,30.05,West,276,1.0,12.0,60,0.00,,,0.00,Wunderground v.1.15,2013-02-19 10:55:00,
2013-02-19 06:00:00,32.4,20.0,30.05,NW,325,1.0,9.0,60,0.00,,,0.00,Wunderground v.1.15,2013-02-19 11:00:00,
2013-02-19 06:06:00,32.9,20.1,30.05,SW,214,1.0,9.0,59,0.00,,,0.00,Wunderground v.1.15,2013-02-19 11:06:00,
2013-02-19 06:11:00,33.0,20.2,30.04,WNW,290,2.0,9.0,59,0.00,,,0.00,Wunderground v.1.15,2013-02-19 11:11:00,
2013-02-19 06:16:00,33.2,20.4,30.03,WSW,240,2.0,9.0,59,0.00,,,0.00,Wunderground v.1.15,2013-02-19 11:16:00,
2013-02-19 06:21:00,33.2,20.4,30.03,SSW,207,1.0,9.0,59,0.00,,,0.00,Wunderground v.1.15,2013-02-19 11:21:00,
2013-02-19 06:26:00,33.6,20.8,30.03,WSW,256,2.0,9.0,59,0.00,,,0.00,Wunderground v.1.15,2013-02-19 11:26:00,
2013-02-19 06:31:00,33.7,20.5,30.03,SSE,150,2.0,9.0,58,0.00,,,0.00,Wunderground v.1.15,2013-02-19 11:31:00,
2013-02-19 06:37:00,33.7,20.9,30.02,SSW,193,1.0,9.0,59,0.00,,,0.00,Wunderground v.1.15,2013-02-19 11:37:00,
2013-02-19 06:42:00,33.4,20.6,30.02,SSE,156,1.0,9.0,59,0.00,,,0.00,Wunderground v.1.15,2013-02-19 11:42:00,
2013-02-19 06:47:00,33.5,20.7,30.02,South,169,1.0,9.0,59,0.00,,,0.00,Wunderground v.1.15,2013-02-19 11:47:00,
2013-02-19 06:52:00,33.1,20.3,30.01,WSW,249,1.0,9.0,59,0.00,,,0.00,Wunderground v.1.15,2013-02-19 11:52:00,
2013-02-19 06:57:00,32.7,20.3,30.01,South,187,0.0,9.0,60,0.00,,,0.00,Wunderground v.1.15,2013-02-19 11:57:00,
2013-02-19 07:02:00,32.9,20.9,30.01,ESE,102,0.0,9.0,61,0.00,,,0.00,Wunderground v.1.15,2013-02-19 12:02:00,
2013-02-19 07:08:00,33.6,21.2,30.01,SW,226,1.0,9.0,60,0.00,,,0.00,Wunderground v.1.15,2013-02-19 12:08:00,
2013-02-19 07:14:00,33.6,21.2,30.00,SSW,204,2.0,6.0,60,0.00,,,0.00,Wunderground v.1.15,2013-02-19 12:14:00,
2013-02-19 07:20:00,34.8,22.3,30.00,SSW,210,2.0,2.0,60,0.00,,,0.00,Wunderground v.1.15,2013-02-19 12:20:00,
2013-02-19 07:26:00,34.9,22.0,30.00,SW,224,1.0,6.0,59,0.00,,,0.00,Wunderground v.1.15,2013-02-19 12:26:00,
2013-02-19 07:31:00,35.3,22.4,30.00,WSW,249,1.0,2.0,59,0.00,,,0.00,Wunderground v.1.15,2013-02-19 12:31:00,
2013-02-19 07:37:00,35.9,23.0,30.00,South,188,1.0,6.0,59,0.00,,,0.00,Wunderground v.1.15,2013-02-19 12:37:00,
2013-02-19 07:43:00,37.0,23.2,29.99,SSE,160,2.0,6.0,57,0.00,,,0.00,Wunderground v.1.15,2013-02-19 12:43:00,
2013-02-19 07:48:00,37.8,23.5,29.99,South,188,2.0,6.0,56,0.00,,,0.00,Wunderground v.1.15,2013-02-19 12:48:00,
2013-02-19 07:54:00,38.5,23.7,29.99,SSW,195,2.0,6.0,55,0.00,,,0.00,Wunderground v.1.15,2013-02-19 12:54:00,
2013-02-19 08:00:00,39.5,23.8,30.00,SSW,207,3.0,3.0,53,0.00,,,0.00,Wunderground v.1.15,2013-02-19 13:00:00,
2013-02-19 08:06:00,39.6,23.9,30.00,SSW,193,3.0,7.0,53,0.00,,,0.00,Wunderground v.1.15,2013-02-19 13:06:00,
2013-02-19 08:11:00,39.7,24.0,29.99,SSW,198,3.0,6.0,53,0.00,,,0.00,Wunderground v.1.15,2013-02-19 13:11:00,
2013-02-19 08:17:00,40.3,24.1,29.98,SW,215,2.0,6.0,52,0.00,,,0.00,Wunderground v.1.15,2013-02-19 13:17:00,
2013-02-19 08:23:00,41.2,24.4,29.98,SW,218,3.0,6.0,51,0.00,,,0.00,Wunderground v.1.15,2013-02-19 13:23:00,
2013-02-19 08:29:00,41.7,24.4,29.98,SSE,162,4.0,8.0,50,0.00,,,0.00,Wunderground v.1.15,2013-02-19 13:29:00,
2013-02-19 08:34:00,41.6,23.8,29.97,South,188,4.0,6.0,49,0.00,,,0.00,Wunderground v.1.15,2013-02-19 13:34:00,
2013-02-19 08:40:00,41.6,24.3,29.97,SSE,156,4.0,4.0,50,0.00,,,0.00,Wunderground v.1.15,2013-02-19 13:40:00,
2013-02-19 08:46:00,41.4,24.1,29.96,SE,124,4.0,6.0,50,0.00,,,0.00,Wunderground v.1.15,2013-02-19 13:46:00,
2013-02-19 08:52:00,41.4,24.6,29.96,West,270,5.0,10.0,51,0.00,,,0.00,Wunderground v.1.15,2013-02-19 13:52:00,
2013-02-19 08:57:00,41.3,24.5,29.95,South,188,5.0,13.0,51,0.00,,,0.00,Wunderground v.1.15,2013-02-19 13:57:00,
2013-02-19 09:03:00,41.3,24.5,29.95,SSE,165,5.0,8.0,51,0.00,,,0.00,Wunderground v.1.15,2013-02-19 14:03:00,
2013-02-19 09:09:00,41.2,24.4,29.95,SSW,201,5.0,9.0,51,0.00,,,0.00,Wunderground v.1.15,2013-02-19 14:09:00,
2013-02-19 09:15:00,41.2,24.9,29.96,South,177,6.0,7.0,52,0.00,,,0.00,Wunderground v.1.15,2013-02-19 14:15:00,
2013-02-19 09:21:00,41.3,25.4,29.96,SSE,163,5.0,6.0,53,0.00,,,0.00,Wunderground v.1.15,2013-02-19 14:21:00,
2013-02-19 09:27:00,41.4,25.5,29.95,ESE,109,5.0,10.0,53,0.00,,,0.00,Wunderground v.1.15,2013-02-19 14:27:00,
2013-02-19 09:32:00,41.8,25.0,29.95,WSW,255,5.0,6.0,51,0.00,,,0.00,Wunderground v.1.15,2013-02-19 14:32:00,
2013-02-19 09:38:00,42.2,24.9,29.93,WSW,253,6.0,11.0,50,0.00,,,0.00,Wunderground v.1.15,2013-02-19 14:38:00,
2013-02-19 09:44:00,42.6,25.2,29.93,SSW,210,5.0,14.0,50,0.00,,,0.00,Wunderground v.1.15,2013-02-19 14:44:00,
2013-02-19 09:50:00,42.8,24.9,29.92,SSW,205,5.0,10.0,49,0.00,,,0.00,Wunderground v.1.15,2013-02-19 14:50:00,
2013-02-19 09:55:00,42.8,24.4,29.92,South,188,5.0,10.0,48,0.00,,,0.00,Wunderground v.1.15,2013-02-19 14:55:00,
2013-02-19 10:01:00,42.9,24.5,29.91,SW,223,4.0,6.0,48,0.00,,,0.00,Wunderground v.1.15,2013-02-19 15:01:00,
2013-02-19 10:07:00,43.0,23.6,29.91,SSE,163,3.0,6.0,46,0.00,,,0.01,Wunderground v.1.15,2013-02-19 15:07:00,
2013-02-19 10:13:00,42.6,23.2,29.90,NNE,13,4.0,6.0,46,0.00,,,0.01,Wunderground v.1.15,2013-02-19 15:13:00,
2013-02-19 10:18:00,42.4,23.1,29.91,WSW,257,4.0,6.0,46,0.00,,,0.01,Wunderground v.1.15,2013-02-19 15:18:00,
2013-02-19 10:24:00,42.3,23.5,29.90,WSW,238,4.0,12.0,47,0.00,,,0.01,Wunderground v.1.15,2013-02-19 15:24:00,
2013-02-19 10:30:00,42.2,23.9,29.90,SW,219,5.0,7.0,48,0.00,,,0.01,Wunderground v.1.15,2013-02-19 15:30:00,
2013-02-19 10:36:00,42.2,23.9,29.90,SW,235,5.0,7.0,48,0.00,,,0.01,Wunderground v.1.15,2013-02-19 15:36:00,
2013-02-19 10:41:00,42.6,23.8,29.89,South,186,4.0,7.0,47,0.00,,,0.02,Wunderground v.1.15,2013-02-19 15:41:00,
2013-02-19 10:47:00,43.0,23.6,29.89,SSE,154,4.0,9.0,46,0.00,,,0.02,Wunderground v.1.15,2013-02-19 15:47:00,
2013-02-19 10:53:00,43.2,22.7,29.88,South,180,5.0,8.0,44,0.00,,,0.02,Wunderground v.1.15,2013-02-19 15:53:00,
2013-02-19 10:59:00,43.4,23.4,29.88,South,190,5.0,11.0,45,0.00,,,0.02,Wunderground v.1.15,2013-02-19 15:59:00,
2013-02-19 11:04:00,43.3,23.4,29.88,SSW,200,6.0,10.0,45,0.00,,,0.02,Wunderground v.1.15,2013-02-19 16:04:00,
2013-02-19 11:10:00,43.1,23.7,29.88,SE,146,6.0,6.0,46,0.00,,,0.02,Wunderground v.1.15,2013-02-19 16:10:00,
2013-02-19 11:16:00,42.9,24.0,29.87,SSW,198,5.0,8.0,47,0.00,,,0.02,Wunderground v.1.15,2013-02-19 16:16:00,
2013-02-19 11:22:00,42.7,23.8,29.86,SE,129,5.0,11.0,47,0.00,,,0.02,Wunderground v.1.15,2013-02-19 16:22:00,
2013-02-19 11:28:00,42.3,24.0,29.86,SW,229,5.0,11.0,48,0.00,,,0.02,Wunderground v.1.15,2013-02-19 16:28:00,
2013-02-19 11:33:00,42.2,23.9,29.86,SSW,194,5.0,6.0,48,0.00,,,0.02,Wunderground v.1.15,2013-02-19 16:33:00,
2013-02-19 11:39:00,42.2,24.4,29.86,SW,219,6.0,7.0,49,0.00,,,0.02,Wunderground v.1.15,2013-02-19 16:39:00,
2013-02-19 11:45:00,42.2,23.9,29.85,South,173,6.0,11.0,48,0.00,,,0.02,Wunderground v.1.15,2013-02-19 16:45:00,
2013-02-19 11:51:00,42.2,24.4,29.84,South,187,5.0,6.0,49,0.00,,,0.02,Wunderground v.1.15,2013-02-19 16:51:00,
2013-02-19 11:57:00,42.1,23.8,29.84,WSW,241,5.0,12.0,48,0.00,,,0.02,Wunderground v.1.15,2013-02-19 16:57:00,
2013-02-19 12:02:00,42.0,24.2,29.84,SSW,207,6.0,10.0,49,0.00,,,0.02,Wunderground v.1.15,2013-02-19 17:02:00,
2013-02-19 12:08:00,41.9,24.1,29.83,SE,143,5.0,12.0,49,0.00,,,0.02,Wunderground v.1.15,2013-02-19 17:08:00,
2013-02-19 12:14:00,41.4,24.6,29.82,West,262,5.0,7.0,51,0.00,,,0.02,Wunderground v.1.15,2013-02-19 17:14:00,
2013-02-19 12:19:00,40.9,24.1,29.82,SSE,163,6.0,9.0,51,0.00,,,0.02,Wunderground v.1.15,2013-02-19 17:19:00,
2013-02-19 12:25:00,40.7,24.4,29.83,ESE,120,5.0,8.0,52,0.00,,,0.02,Wunderground v.1.15,2013-02-19 17:25:00,
2013-02-19 12:31:00,40.0,24.2,29.83,South,181,5.0,9.0,53,0.00,,,0.02,Wunderground v.1.15,2013-02-19 17:31:00,
2013-02-19 12:37:00,39.1,24.3,29.83,SSW,207,5.0,9.0,55,0.00,,,0.02,Wunderground v.1.15,2013-02-19 17:37:00,
2013-02-19 12:43:00,37.9,24.8,29.83,SW,222,6.0,10.0,59,0.00,,,0.02,Wunderground v.1.15,2013-02-19 17:43:00,
2013-02-19 12:49:00,36.9,26.6,29.82,South,179,5.0,10.0,66,0.00,,,0.02,Wunderground v.1.15,2013-02-19 17:49:00,
2013-02-19 12:55:00,35.7,27.6,29.82,South,184,5.0,8.0,72,0.00,,,0.02,Wunderground v.1.15,2013-02-19 17:55:00,
2013-02-19 13:01:00,34.7,28.2,29.83,SSE,156,5.0,6.0,77,0.00,,,0.02,Wunderground v.1.15,2013-02-19 18:01:00,
2013-02-19 13:06:00,34.0,28.5,29.82,South,187,4.0,6.0,80,0.00,,,0.02,Wunderground v.1.15,2013-02-19 18:06:00,
2013-02-19 13:12:00,33.5,28.6,29.81,SSW,194,4.0,6.0,82,0.00,,,0.02,Wunderground v.1.15,2013-02-19 18:12:00,
2013-02-19 13:18:00,33.3,29.0,29.81,South,191,4.0,6.0,84,0.00,,,0.02,Wunderground v.1.15,2013-02-19 18:18:00,
2013-02-19 13:23:00,33.0,28.7,29.81,SSW,203,4.0,6.0,84,0.00,,,0.02,Wunderground v.1.15,2013-02-19 18:23:00,
2013-02-19 13:29:00,32.7,28.7,29.81,WNW,285,4.0,6.0,85,0.00,,,0.02,Wunderground v.1.15,2013-02-19 18:29:00,
2013-02-19 13:35:00,32.5,28.8,29.80,SW,231,4.0,7.0,86,0.00,,,0.02,Wunderground v.1.15,2013-02-19 18:35:00,
2013-02-19 13:41:00,32.4,28.7,29.79,East,82,3.0,6.0,86,0.00,,,0.02,Wunderground v.1.15,2013-02-19 18:41:00,
2013-02-19 13:46:00,32.6,29.2,29.78,SW,232,3.0,6.0,87,0.00,,,0.02,Wunderground v.1.15,2013-02-19 18:46:00,
2013-02-19 13:52:00,32.7,29.0,29.79,SW,218,2.0,7.0,86,0.00,,,0.02,Wunderground v.1.15,2013-02-19 18:52:00,
2013-02-19 13:58:00,32.7,28.7,29.79,South,180,3.0,7.0,85,0.00,,,0.02,Wunderground v.1.15,2013-02-19 18:58:00,
2013-02-19 14:03:00,32.9,28.6,29.78,ESE,122,3.0,7.0,84,0.00,,,0.02,Wunderground v.1.15,2013-02-19 19:03:00,
2013-02-19 14:09:00,33.2,28.6,29.78,SSW,193,4.0,7.0,83,0.00,,,0.02,Wunderground v.1.15,2013-02-19 19:09:00,
2013-02-19 14:15:00,33.4,28.5,29.77,East,88,5.0,10.0,82,0.00,,,0.02,Wunderground v.1.15,2013-02-19 19:15:00,
2013-02-19 14:21:00,33.5,28.6,29.77,SW,217,6.0,7.0,82,0.00,,,0.02,Wunderground v.1.15,2013-02-19 19:21:00,
2013-02-19 14:26:00,33.4,28.5,29.77,South,186,6.0,7.0,82,0.00,,,0.02,Wunderground v.1.15,2013-02-19 19:26:00,
2013-02-19 14:32:00,33.2,28.6,29.77,West,270,5.0,6.0,83,0.00,,,0.02,Wunderground v.1.15,2013-02-19 19:32:00,
2013-02-19 14:38:00,33.2,28.9,29.76,WSW,257,5.0,6.0,84,0.00,,,0.02,Wunderground v.1.15,2013-02-19 19:38:00,
2013-02-19 14:44:00,33.5,29.2,29.76,SSE,153,4.0,6.0,84,0.00,,,0.02,Wunderground v.1.15,2013-02-19 19:44:00,
2013-02-19 14:49:00,33.7,29.4,29.76,SSW,204,3.0,6.0,84,0.00,,,0.02,Wunderground v.1.15,2013-02-19 19:49:00,
2013-02-19 14:55:00,33.8,29.5,29.76,ESE,110,4.0,7.0,84,0.00,,,0.02,Wunderground v.1.15,2013-02-19 19:55:00,
2013-02-19 15:00:00,33.7,29.4,29.76,SE,146,4.0,4.0,84,0.00,,,0.02,Wunderground v.1.15,2013-02-19 20:00:00,
2013-02-19 15:06:00,33.6,29.6,29.76,SW,232,3.0,6.0,85,0.00,,,0.02,Wunderground v.1.15,2013-02-19 20:06:00,
2013-02-19 15:12:00,33.5,29.5,29.75,SW,233,3.0,6.0,85,0.00,,,0.02,Wunderground v.1.15,2013-02-19 20:12:00,
2013-02-19 15:18:00,33.4,29.4,29.75,SW,226,3.0,6.0,85,0.00,,,0.02,Wunderground v.1.15,2013-02-19 20:18:00,
2013-02-19 15:24:00,33.4,29.7,29.75,South,191,3.0,6.0,86,0.00,,,0.02,Wunderground v.1.15,2013-02-19 20:24:00,
2013-02-19 15:30:00,33.3,29.8,29.74,South,188,3.0,3.0,87,0.00,,,0.02,Wunderground v.1.15,2013-02-19 20:30:00,
2013-02-19 15:35:00,33.2,29.8,29.74,West,275,3.0,6.0,87,0.00,,,0.02,Wunderground v.1.15,2013-02-19 20:35:00,
2013-02-19 15:41:00,33.2,30.0,29.73,ESE,105,3.0,6.0,88,0.00,,,0.02,Wunderground v.1.15,2013-02-19 20:41:00,
2013-02-19 15:47:00,33.2,30.0,29.73,SSE,154,3.0,6.0,88,0.00,,,0.02,Wunderground v.1.15,2013-02-19 20:47:00,
2013-02-19 15:53:00,33.3,30.1,29.73,SSW,196,2.0,6.0,88,0.00,,,0.02,Wunderground v.1.15,2013-02-19 20:53:00,
2013-02-19 15:59:00,33.3,30.1,29.73,SSW,204,2.0,6.0,88,0.00,,,0.02,Wunderground v.1.15,2013-02-19 20:59:00,
2013-02-19 16:04:00,33.3,30.1,29.73,SE,128,2.0,6.0,88,0.00,,,0.02,Wunderground v.1.15,2013-02-19 21:04:00,
2013-02-19 16:10:00,33.3,30.1,29.72,SSE,152,2.0,2.0,88,0.00,,,0.02,Wunderground v.1.15,2013-02-19 21:10:00,
2013-02-19 16:16:00,33.1,30.2,29.72,South,169,2.0,6.0,89,0.00,,,0.02,Wunderground v.1.15,2013-02-19 21:16:00,
2013-02-19 16:22:00,32.9,30.3,29.72,SW,215,2.0,6.0,90,0.00,,,0.02,Wunderground v.1.15,2013-02-19 21:22:00,
2013-02-19 16:28:00,32.6,30.3,29.71,SW,231,2.0,6.0,91,0.00,,,0.02,Wunderground v.1.15,2013-02-19 21:28:00,
2013-02-19 16:33:00,32.5,30.4,29.71,SSW,207,1.0,6.0,92,0.00,,,0.02,Wunderground v.1.15,2013-02-19 21:33:00,
2013-02-19 16:39:00,32.4,30.3,29.71,South,181,1.0,6.0,92,0.00,,,0.02,Wunderground v.1.15,2013-02-19 21:39:00,
2013-02-19 16:45:00,32.3,30.2,29.71,SE,138,0.0,6.0,92,0.00,,,0.02,Wunderground v.1.15,2013-02-19 21:45:00,
2013-02-19 16:51:00,32.4,30.6,29.71,SSW,193,1.0,6.0,93,0.00,,,0.02,Wunderground v.1.15,2013-02-19 21:51:00,
2013-02-19 16:57:00,32.4,30.6,29.71,ESE,105,1.0,6.0,93,0.00,,,0.02,Wunderground v.1.15,2013-02-19 21:57:00,
2013-02-19 17:02:00,32.4,30.6,29.70,SE,131,1.0,6.0,93,0.00,,,0.02,Wunderground v.1.15,2013-02-19 22:02:00,
2013-02-19 17:08:00,32.4,30.9,29.71,SSW,208,1.0,6.0,94,0.00,,,0.02,Wunderground v.1.15,2013-02-19 22:08:00,
2013-02-19 17:14:00,32.4,30.9,29.71,SSW,208,1.0,6.0,94,0.00,,,0.02,Wunderground v.1.15,2013-02-19 22:14:00,
2013-02-19 17:19:00,32.4,30.6,29.70,WSW,250,1.0,6.0,93,0.00,,,0.02,Wunderground v.1.15,2013-02-19 22:19:00,
2013-02-19 17:25:00,32.4,30.6,29.70,SSW,195,1.0,6.0,93,0.00,,,0.02,Wunderground v.1.15,2013-02-19 22:25:00,
2013-02-19 17:31:00,32.4,30.6,29.70,WSW,255,1.0,6.0,93,0.00,,,0.02,Wunderground v.1.15,2013-02-19 22:31:00,
2013-02-19 17:37:00,32.3,30.8,29.70,SSE,160,0.0,6.0,94,0.00,,,0.02,Wunderground v.1.15,2013-02-19 22:37:00,
2013-02-19 17:43:00,32.3,30.8,29.70,SSW,203,0.0,6.0,94,0.00,,,0.02,Wunderground v.1.15,2013-02-19 22:43:00,
2013-02-19 17:49:00,32.2,30.7,29.70,SSW,197,1.0,6.0,94,0.00,,,0.02,Wunderground v.1.15,2013-02-19 22:49:00,
2013-02-19 17:55:00,32.3,30.8,29.70,WSW,252,0.0,6.0,94,0.00,,,0.02,Wunderground v.1.15,2013-02-19 22:55:00,
2013-02-19 18:00:00,32.3,30.8,29.70,South,190,0.0,6.0,94,0.00,,,0.02,Wunderground v.1.15,2013-02-19 23:00:00,
2013-02-19 18:06:00,32.3,30.8,29.69,SSW,212,0.0,6.0,94,0.00,,,0.02,Wunderground v.1.15,2013-02-19 23:06:00,
2013-02-19 18:12:00,32.3,30.8,29.69,WSW,245,0.0,6.0,94,0.00,,,0.02,Wunderground v.1.15,2013-02-19 23:12:00,
2013-02-19 18:18:00,32.3,30.8,29.69,SSW,195,1.0,6.0,94,0.00,,,0.02,Wunderground v.1.15,2013-02-19 23:18:00,
2013-02-19 18:23:00,32.3,30.8,29.69,WSW,248,0.0,6.0,94,0.00,,,0.02,Wunderground v.1.15,2013-02-19 23:23:00,
2013-02-19 18:29:00,32.3,31.0,29.69,SSW,210,0.0,6.0,95,0.00,,,0.02,Wunderground v.1.15,2013-02-19 23:29:00,
2013-02-19 18:35:00,32.3,31.0,29.69,WSW,250,0.0,6.0,95,0.00,,,0.02,Wunderground v.1.15,2013-02-19 23:35:00,
2013-02-19 18:41:00,32.3,31.0,29.69,SSW,205,0.0,6.0,95,0.00,,,0.02,Wunderground v.1.15,2013-02-19 23:41:00,
2013-02-19 18:47:00,32.3,31.0,29.69,SSW,212,0.0,6.0,95,0.00,,,0.02,Wunderground v.1.15,2013-02-19 23:47:00,
2013-02-19 18:53:00,32.3,31.0,29.69,SW,218,0.0,6.0,95,0.00,,,0.02,Wunderground v.1.15,2013-02-19 23:53:00,
2013-02-19 18:59:00,32.3,31.0,29.69,SSW,212,1.0,6.0,95,0.00,,,0.02,Wunderground v.1.15,2013-02-19 23:59:00,
2013-02-19 19:04:00,32.3,31.0,29.69,West,270,1.0,6.0,95,0.00,,,0.02,Wunderground v.1.15,2013-02-20 00:04:00,
2013-02-19 19:10:00,32.3,31.0,29.69,SSE,167,1.0,6.0,95,0.00,,,0.02,Wunderground v.1.15,2013-02-20 00:10:00,
2013-02-19 19:16:00,32.3,31.0,29.69,SW,229,1.0,6.0,95,0.00,,,0.02,Wunderground v.1.15,2013-02-20 00:16:00,
2013-02-19 19:22:00,32.3,31.0,29.69,West,273,1.0,6.0,95,0.00,,,0.02,Wunderground v.1.15,2013-02-20 00:22:00,
2013-02-19 19:28:00,32.3,31.0,29.69,SSE,160,1.0,6.0,95,0.00,,,0.02,Wunderground v.1.15,2013-02-20 00:28:00,
2013-02-19 19:34:00,32.4,31.1,29.69,SSE,162,0.0,6.0,95,0.00,,,0.02,Wunderground v.1.15,2013-02-20 00:34:00,
2013-02-19 19:40:00,32.4,31.1,29.68,SSW,211,1.0,1.0,95,0.00,,,0.02,Wunderground v.1.15,2013-02-20 00:40:00,
2013-02-19 19:45:00,32.5,31.2,29.68,WSW,255,1.0,6.0,95,0.00,,,0.02,Wunderground v.1.15,2013-02-20 00:45:00,
2013-02-19 19:51:00,32.5,31.2,29.68,WSW,238,1.0,6.0,95,0.00,,,0.02,Wunderground v.1.15,2013-02-20 00:51:00,
2013-02-19 19:57:00,32.6,31.3,29.68,West,276,1.0,6.0,95,0.00,,,0.02,Wunderground v.1.15,2013-02-20 00:57:00,
2013-02-19 20:03:00,32.6,31.1,29.68,WNW,292,1.0,6.0,94,0.00,,,0.02,Wunderground v.1.15,2013-02-20 01:03:00,
2013-02-19 20:09:00,32.6,31.3,29.68,SW,232,0.0,6.0,95,0.00,,,0.02,Wunderground v.1.15,2013-02-20 01:09:00,
2013-02-19 20:14:00,32.6,31.3,29.68,SW,215,1.0,6.0,95,0.00,,,0.02,Wunderground v.1.15,2013-02-20 01:14:00,
2013-02-19 20:20:00,32.7,31.4,29.68,SW,232,1.0,1.0,95,0.00,,,0.02,Wunderground v.1.15,2013-02-20 01:20:00,
2013-02-19 20:25:00,32.7,31.4,29.67,West,262,1.0,6.0,95,0.00,,,0.02,Wunderground v.1.15,2013-02-20 01:25:00,
2013-02-19 20:31:00,32.8,31.3,29.67,West,268,1.0,6.0,94,0.00,,,0.02,Wunderground v.1.15,2013-02-20 01:31:00,
2013-02-19 20:36:00,32.9,31.4,29.67,SW,222,1.0,6.0,94,0.00,,,0.02,Wunderground v.1.15,2013-02-20 01:36:00,
2013-02-19 20:42:00,32.9,31.4,29.67,West,262,1.0,6.0,94,0.00,,,0.02,Wunderground v.1.15,2013-02-20 01:42:00,
2013-02-19 20:47:00,32.9,31.4,29.67,West,278,1.0,6.0,94,0.00,,,0.02,Wunderground v.1.15,2013-02-20 01:47:00,
2013-02-19 20:53:00,32.9,31.1,29.67,WNW,292,1.0,6.0,93,0.00,,,0.02,Wunderground v.1.15,2013-02-20 01:53:00,
2013-02-19 20:59:00,32.9,31.1,29.67,West,264,1.0,6.0,93,0.00,,,0.02,Wunderground v.1.15,2013-02-20 01:59:00,
2013-02-19 21:05:00,32.9,31.1,29.67,SW,235,1.0,6.0,93,0.00,,,0.02,Wunderground v.1.15,2013-02-20 02:05:00,
2013-02-19 21:11:00,32.9,30.8,29.66,NW,314,1.0,6.0,92,0.00,,,0.02,Wunderground v.1.15,2013-02-20 02:11:00,
2013-02-19 21:17:00,32.8,30.7,29.66,SSW,203,1.0,6.0,92,0.00,,,0.02,Wunderground v.1.15,2013-02-20 02:17:00,
2013-02-19 21:22:00,32.7,30.6,29.66,WSW,257,1.0,6.0,92,0.00,,,0.02,Wunderground v.1.15,2013-02-20 02:22:00,
2013-02-19 21:28:00,32.7,30.6,29.66,SSW,205,1.0,6.0,92,0.00,,,0.02,Wunderground v.1.15,2013-02-20 02:28:00,
2013-02-19 21:34:00,32.8,30.7,29.66,WSW,239,1.0,6.0,92,0.00,,,0.02,Wunderground v.1.15,2013-02-20 02:34:00,
2013-02-19 21:40:00,32.8,30.5,29.66,SW,218,1.0,6.0,91,0.00,,,0.02,Wunderground v.1.15,2013-02-20 02:40:00,
2013-02-19 21:46:00,32.8,30.5,29.66,SSW,210,2.0,6.0,91,0.00,,,0.02,Wunderground v.1.15,2013-02-20 02:46:00,
2013-02-19 21:52:00,32.7,30.4,29.65,SW,226,1.0,6.0,91,0.00,,,0.02,Wunderground v.1.15,2013-02-20 02:52:00,
2013-02-19 21:58:00,32.7,30.6,29.65,WSW,243,1.0,6.0,92,0.00,,,0.02,Wunderground v.1.15,2013-02-20 02:58:00,
2013-02-19 22:03:00,32.6,30.5,29.65,WSW,245,1.0,5.0,92,0.00,,,0.02,Wunderground v.1.15,2013-02-20 03:03:00,
2013-02-19 22:08:00,32.6,30.5,29.65,NW,305,1.0,5.0,92,0.00,,,0.02,Wunderground v.1.15,2013-02-20 03:08:00,
2013-02-19 22:13:00,31.2,28.6,29.67,NW,310,3.0,10.0,90,0.00,,,0.02,Wunderground v.1.15,2013-02-20 03:13:00,
2013-02-19 22:19:00,29.8,27.8,29.67,NW,325,6.0,10.0,92,0.00,,,0.02,Wunderground v.1.15,2013-02-20 03:19:00,
2013-02-19 22:24:00,29.2,27.4,29.67,NNW,330,5.0,6.0,93,0.00,,,0.02,Wunderground v.1.15,2013-02-20 03:24:00,
2013-02-19 22:29:00,28.7,27.2,29.67,WNW,302,4.0,6.0,94,0.00,,,0.02,Wunderground v.1.15,2013-02-20 03:29:00,
2013-02-19 22:34:00,28.3,26.8,29.68,West,280,4.0,10.0,94,0.00,,,0.02,Wunderground v.1.15,2013-02-20 03:34:00,
2013-02-19 22:39:00,28.0,26.5,29.68,NW,317,5.0,10.0,94,0.00,,,0.02,Wunderground v.1.15,2013-02-20 03:39:00,
2013-02-19 22:45:00,27.7,25.9,29.68,NW,321,6.0,7.0,93,0.00,,,0.02,Wunderground v.1.15,2013-02-20 03:45:00,
2013-02-19 22:50:00,27.5,25.7,29.68,West,278,5.0,6.0,93,0.00,,,0.02,Wunderground v.1.15,2013-02-20 03:50:00,
2013-02-19 22:55:00,27.4,25.6,29.69,NW,325,5.0,7.0,93,0.00,,,0.02,Wunderground v.1.15,2013-02-20 03:55:00,
2013-02-19 23:00:00,27.2,25.4,29.69,WNW,299,5.0,5.0,93,0.00,,,0.02,Wunderground v.1.15,2013-02-20 04:00:00,
2013-02-19 23:05:00,27.1,25.1,29.69,NW,310,5.0,6.0,92,0.00,,,0.02,Wunderground v.1.15,2013-02-20 04:05:00,
2013-02-19 23:11:00,27.0,25.0,29.69,West,277,5.0,5.0,92,0.00,,,0.02,Wunderground v.1.15,2013-02-20 04:11:00,
2013-02-19 23:16:00,26.8,24.8,29.69,West,277,5.0,8.0,92,0.00,,,0.02,Wunderground v.1.15,2013-02-20 04:16:00,
2013-02-19 23:21:00,26.7,24.7,29.69,WNW,284,5.0,5.0,92,0.00,,,0.02,Wunderground v.1.15,2013-02-20 04:21:00,
2013-02-19 23:26:00,26.6,24.3,29.69,WNW,297,4.0,8.0,91,0.00,,,0.02,Wunderground v.1.15,2013-02-20 04:26:00,
2013-02-19 23:31:00,26.5,24.2,29.69,NNW,338,4.0,5.0,91,0.00,,,0.02,Wunderground v.1.15,2013-02-20 04:31:00,
2013-02-19 23:37:00,26.5,24.2,29.69,SW,235,3.0,6.0,91,0.00,,,0.02,Wunderground v.1.15,2013-02-20 04:37:00,
2013-02-19 23:42:00,26.5,24.2,29.69,West,269,3.0,5.0,91,0.00,,,0.02,Wunderground v.1.15,2013-02-20 04:42:00,
2013-02-19 23:47:00,26.4,24.1,29.69,North,7,3.0,5.0,91,0.00,,,0.02,Wunderground v.1.15,2013-02-20 04:47:00,
2013-02-19 23:52:00,26.4,24.1,29.69,SSW,211,2.0,8.0,91,0.00,,,0.02,Wunderground v.1.15,2013-02-20 04:52:00,
2013-02-19 23:57:00,26.5,24.0,29.69,SW,231,3.0,8.0,90,0.00,,,0.02,Wunderground v.1.15,2013-02-20 04:57:00,